Location: Allie Creek
(37.5926°N, 89.8526°W)
Time: 02:55:45
(UTC+00:00)

ISS - Pass Details

Date: 25 January 2026
Orbit: 413 x 429 km, 51.6° (Epoch: 10 February)

Event Time Altitude Azimuth Distance (km) Brightness Sun altitude
Rises 23:56:30 0° 321° (NW) 2,364 0.4 -8.4°
Reaches altitude 10° 23:59:41 10° 354° (N) 1,503 -1.0 -9.0°
Maximum altitude 00:01:06 12° 19° (NNE) 1,380 -1.5 -9.3°
Enters shadow 00:02:28 10° 43° (NE) 1,494 -1.5 -9.5°
